OCN12A EDDF-LGKF

Flight info

Callsign OCN12A
Flight time 2h 6m
Altitude 37000
Route ANEKI2L ANEKI Y163 NATOR N850 TRA DCT SUXAN DCT LATAN UM872 ASTUS
Aircraft A320/M-SDE3FGHIRWY/LB1

Departure

Time 2026-05-08 14:25
Airport Frankfurt Main Airport (EDDF)

Arrival

Time 2026-05-08 16:31
Airport Kefallinia Airport (LGKF)
Time Latitude Longitude Altitude Speed Heading
2026-05-08 14:03 50.04910 8.58866 349 ft 0 kts 161°
2026-05-08 14:07 50.04916 8.58863 351 ft 2 kts 161°
2026-05-08 14:08 50.04931 8.58855 345 ft 2 kts 161°
2026-05-08 14:08 50.04946 8.58846 347 ft 2 kts 161°
2026-05-08 14:08 50.04962 8.58843 355 ft 2 kts 204°
2026-05-08 14:08 50.04972 8.58856 355 ft 0 kts 251°
2026-05-08 14:11 50.04963 8.58816 351 ft 13 kts 251°
2026-05-08 14:11 50.04918 8.58624 347 ft 21 kts 250°
2026-05-08 14:11 50.04864 8.58403 349 ft 23 kts 250°
2026-05-08 14:11 50.04807 8.58162 351 ft 24 kts 249°
2026-05-08 14:12 50.04733 8.57926 352 ft 23 kts 226°
2026-05-08 14:12 50.04660 8.57702 351 ft 24 kts 250°
2026-05-08 14:12 50.04599 8.57444 354 ft 26 kts 249°
2026-05-08 14:12 50.04535 8.57174 348 ft 27 kts 250°
2026-05-08 14:13 50.04467 8.56890 351 ft 29 kts 250°
2026-05-08 14:13 50.04397 8.56596 353 ft 28 kts 249°
2026-05-08 14:13 50.04336 8.56344 349 ft 25 kts 250°
2026-05-08 14:13 50.04274 8.56083 349 ft 27 kts 250°
2026-05-08 14:14 50.04208 8.55807 348 ft 28 kts 249°
2026-05-08 14:14 50.04139 8.55519 353 ft 29 kts 249°
2026-05-08 14:14 50.04074 8.55247 349 ft 25 kts 249°
2026-05-08 14:14 50.04012 8.54988 349 ft 26 kts 249°
2026-05-08 14:15 50.03948 8.54722 352 ft 26 kts 250°
2026-05-08 14:15 50.03884 8.54453 349 ft 27 kts 250°
2026-05-08 14:15 50.03797 8.54209 356 ft 26 kts 247°
2026-05-08 14:15 50.03731 8.53934 350 ft 27 kts 250°
2026-05-08 14:16 50.03662 8.53651 352 ft 28 kts 248°
2026-05-08 14:16 50.03595 8.53376 351 ft 25 kts 250°
2026-05-08 14:16 50.03538 8.53141 347 ft 22 kts 250°
2026-05-08 14:16 50.03483 8.52916 349 ft 22 kts 248°
2026-05-08 14:17 50.03440 8.52755 351 ft 11 kts 248°
2026-05-08 14:17 50.03428 8.52709 355 ft 0 kts 247°
2026-05-08 14:18 50.03420 8.52677 347 ft 7 kts 248°
2026-05-08 14:18 50.03404 8.52608 351 ft 6 kts 248°
2026-05-08 14:19 50.03372 8.52594 348 ft 4 kts 181°
2026-05-08 14:19 50.03344 8.52594 345 ft 3 kts 179°
2026-05-08 14:19 50.03270 8.52594 352 ft 21 kts 180°
2026-05-08 14:19 50.03098 8.52596 346 ft 26 kts 179°
2026-05-08 14:20 50.02948 8.52624 349 ft 13 kts 129°
2026-05-08 14:20 50.02940 8.52736 346 ft 3 kts 89°
2026-05-08 14:20 50.02941 8.52764 346 ft 3 kts 85°
2026-05-08 14:20 50.02991 8.52823 349 ft 14 kts
2026-05-08 14:21 50.03093 8.52822 349 ft 16 kts 359°
2026-05-08 14:21 50.03207 8.52820 346 ft 17 kts 359°
2026-05-08 14:21 50.03334 8.52818 350 ft 18 kts 359°
2026-05-08 14:21 50.03431 8.52764 352 ft 13 kts 294°
2026-05-08 14:22 50.03431 8.52724 354 ft 0 kts 252°
2026-05-08 14:22 50.03428 8.52712 353 ft 6 kts 250°
2026-05-08 14:22 50.03383 8.52610 351 ft 13 kts 212°
2026-05-08 14:22 50.03297 8.52594 353 ft 14 kts 180°
2026-05-08 14:23 50.03190 8.52595 345 ft 15 kts 180°
2026-05-08 14:23 50.03090 8.52596 346 ft 15 kts 180°
2026-05-08 14:23 50.02980 8.52598 346 ft 15 kts 179°
2026-05-08 14:23 50.02937 8.52598 346 ft 0 kts 179°
2026-05-08 14:24 50.02931 8.52598 346 ft 5 kts 179°
2026-05-08 14:24 50.02670 8.52600 353 ft 76 kts 180°
2026-05-08 14:24 50.01905 8.52608 346 ft 139 kts 179°
2026-05-08 14:24 50.00775 8.52616 464 ft 175 kts 180°
2026-05-08 14:25 49.99576 8.52656 1290 ft 170 kts 177°
2026-05-08 14:25 49.98385 8.52734 1937 ft 178 kts 176°
2026-05-08 14:25 49.97065 8.52838 2274 ft 200 kts 176°
2026-05-08 14:25 49.95608 8.52963 2640 ft 219 kts 176°
2026-05-08 14:26 49.94016 8.53085 3207 ft 231 kts 177°
2026-05-08 14:26 49.92824 8.53168 3832 ft 233 kts 177°
2026-05-08 14:26 49.91212 8.53275 4661 ft 234 kts 178°
2026-05-08 14:26 49.89582 8.53382 5520 ft 235 kts 178°
2026-05-08 14:27 49.87940 8.53491 6367 ft 236 kts 178°
2026-05-08 14:27 49.86297 8.53599 7183 ft 237 kts 178°
2026-05-08 14:27 49.84638 8.53711 7954 ft 240 kts 179°
2026-05-08 14:27 49.82929 8.53827 8710 ft 245 kts 179°
2026-05-08 14:28 49.81237 8.53942 9470 ft 249 kts 179°
2026-05-08 14:28 49.79470 8.54057 10270 ft 252 kts 180°
2026-05-08 14:28 49.77706 8.54090 11007 ft 257 kts 186°
2026-05-08 14:28 49.75871 8.53853 11329 ft 280 kts 187°
2026-05-08 14:29 49.73821 8.53576 11601 ft 304 kts 187°
2026-05-08 14:29 49.71628 8.53278 11831 ft 328 kts 186°
2026-05-08 14:29 49.69274 8.52959 12050 ft 350 kts 186°
2026-05-08 14:29 49.66815 8.52630 12611 ft 359 kts 186°
2026-05-08 14:30 49.64310 8.52300 13315 ft 363 kts 186°
2026-05-08 14:30 49.61779 8.51972 14026 ft 367 kts 186°
2026-05-08 14:30 49.59227 8.51642 14681 ft 370 kts 186°
2026-05-08 14:30 49.56545 8.51291 15379 ft 373 kts 186°
2026-05-08 14:31 49.54024 8.50961 16028 ft 375 kts 186°
2026-05-08 14:31 49.51412 8.50616 16683 ft 378 kts 186°
2026-05-08 14:31 49.48785 8.50269 17321 ft 381 kts 186°
2026-05-08 14:32 49.43462 8.49567 18549 ft 386 kts 186°
2026-05-08 14:32 49.40783 8.49219 19102 ft 388 kts 186°
2026-05-08 14:32 49.38084 8.48870 19643 ft 390 kts 186°
2026-05-08 14:32 49.35373 8.48521 20163 ft 393 kts 186°
2026-05-08 14:33 49.32634 8.48165 20670 ft 396 kts 187°
2026-05-08 14:33 49.29882 8.47807 21172 ft 399 kts 187°
2026-05-08 14:33 49.27104 8.47445 21659 ft 401 kts 187°
2026-05-08 14:33 49.24312 8.47078 22137 ft 404 kts 187°
2026-05-08 14:34 49.21504 8.46706 22606 ft 407 kts 187°
2026-05-08 14:34 49.18666 8.46330 23073 ft 410 kts 187°
2026-05-08 14:34 49.15770 8.45955 23546 ft 413 kts 187°
2026-05-08 14:34 49.12903 8.45589 23942 ft 416 kts 187°
2026-05-08 14:35 49.10008 8.45221 24323 ft 418 kts 187°
2026-05-08 14:35 49.07108 8.44840 24705 ft 419 kts 189°
2026-05-08 14:35 49.04242 8.44034 25075 ft 419 kts 195°
2026-05-08 14:35 49.01392 8.43034 25445 ft 421 kts 195°
2026-05-08 14:36 48.98528 8.42026 25814 ft 423 kts 195°
2026-05-08 14:36 48.95649 8.41015 26184 ft 425 kts 195°
2026-05-08 14:36 48.92760 8.40004 26554 ft 427 kts 195°
2026-05-08 14:36 48.89855 8.38993 26917 ft 429 kts 195°
2026-05-08 14:37 48.86936 8.37982 27262 ft 432 kts 194°
2026-05-08 14:37 48.83997 8.36968 27593 ft 434 kts 194°
2026-05-08 14:37 48.81052 8.35956 27930 ft 436 kts 194°
2026-05-08 14:37 48.78089 8.34937 28265 ft 437 kts 194°
2026-05-08 14:38 48.75115 8.33886 28593 ft 439 kts 195°
2026-05-08 14:38 48.72147 8.32803 28915 ft 440 kts 195°
2026-05-08 14:38 48.69159 8.31694 29224 ft 442 kts 195°
2026-05-08 14:38 48.66172 8.30582 29598 ft 442 kts 195°
2026-05-08 14:39 48.63187 8.29475 30055 ft 441 kts 195°
2026-05-08 14:39 48.60214 8.28382 30435 ft 440 kts 195°
2026-05-08 14:39 48.57243 8.27302 30784 ft 439 kts 195°
2026-05-08 14:39 48.54234 8.26216 31134 ft 439 kts 195°
2026-05-08 14:40 48.51250 8.25245 31456 ft 440 kts 190°
2026-05-08 14:40 48.48192 8.24910 31786 ft 442 kts 181°
2026-05-08 14:40 48.45117 8.25308 32112 ft 445 kts 173°
2026-05-08 14:40 48.42061 8.26069 32435 ft 445 kts 173°
2026-05-08 14:41 48.39006 8.26823 32776 ft 445 kts 173°
2026-05-08 14:41 48.35947 8.27568 33102 ft 445 kts 174°
2026-05-08 14:41 48.32894 8.28302 33390 ft 446 kts 174°
2026-05-08 14:41 48.29826 8.29037 33711 ft 446 kts 174°
2026-05-08 14:42 48.26763 8.29772 34027 ft 446 kts 174°
2026-05-08 14:42 48.23696 8.30510 34289 ft 446 kts 174°
2026-05-08 14:42 48.20630 8.31248 34554 ft 447 kts 174°
2026-05-08 14:42 48.17561 8.31986 34815 ft 447 kts 174°
2026-05-08 14:43 48.14492 8.32724 35052 ft 447 kts 174°
2026-05-08 14:43 48.11415 8.33470 35270 ft 448 kts 174°
2026-05-08 14:43 48.08328 8.34223 35490 ft 449 kts 174°
2026-05-08 14:43 48.05246 8.34974 35722 ft 450 kts 174°
2026-05-08 14:44 48.02153 8.35726 35952 ft 450 kts 174°
2026-05-08 14:44 47.99065 8.36475 36182 ft 450 kts 174°
2026-05-08 14:44 47.95973 8.37223 36401 ft 450 kts 174°
2026-05-08 14:44 47.92879 8.37970 36629 ft 450 kts 174°
2026-05-08 14:45 47.89789 8.38718 36826 ft 451 kts 174°
2026-05-08 14:45 47.86687 8.39466 37001 ft 452 kts 174°
2026-05-08 14:45 47.80427 8.40967 37046 ft 453 kts 174°
2026-05-08 14:46 47.74215 8.42556 37042 ft 456 kts 168°
2026-05-08 14:46 47.68425 8.46493 37030 ft 464 kts 147°
2026-05-08 14:47 47.65947 8.49585 37029 ft 469 kts 136°
2026-05-08 14:47 47.63839 8.53292 37032 ft 472 kts 130°
2026-05-08 14:47 47.59779 8.60942 37038 ft 472 kts 131°
2026-05-08 14:48 47.55690 8.68555 37029 ft 472 kts 131°
2026-05-08 14:48 47.51595 8.76150 37032 ft 472 kts 131°
2026-05-08 14:49 47.47506 8.83730 37033 ft 471 kts 131°
2026-05-08 14:49 47.43424 8.91305 37031 ft 471 kts 131°
2026-05-08 14:50 47.39331 8.98856 37035 ft 471 kts 131°
2026-05-08 14:50 47.35235 9.06392 37036 ft 471 kts 131°
2026-05-08 14:51 47.31132 9.13926 37041 ft 471 kts 131°
2026-05-08 14:51 47.27007 9.21475 37045 ft 470 kts 132°
2026-05-08 14:52 47.21548 9.31430 37046 ft 469 kts 131°
2026-05-08 14:53 47.17450 9.38883 37030 ft 469 kts 132°
2026-05-08 14:53 47.13346 9.46322 37032 ft 469 kts 132°
2026-05-08 14:54 47.09242 9.53760 37040 ft 469 kts 132°
2026-05-08 14:54 47.05131 9.61184 37056 ft 468 kts 133°
2026-05-08 14:55 47.01023 9.68588 37058 ft 468 kts 133°
2026-05-08 14:55 46.96875 9.76024 37058 ft 468 kts 133°
2026-05-08 14:56 46.92752 9.83389 37059 ft 468 kts 133°
2026-05-08 14:56 46.88629 9.90743 37067 ft 468 kts 133°
2026-05-08 14:57 46.84505 9.98086 37076 ft 467 kts 133°
2026-05-08 14:57 46.80381 10.05409 37076 ft 467 kts 133°
2026-05-08 14:58 46.76254 10.12728 37074 ft 467 kts 133°
2026-05-08 14:58 46.72089 10.20077 37056 ft 467 kts 133°
2026-05-08 14:59 46.67945 10.27356 37064 ft 466 kts 133°
2026-05-08 14:59 46.61749 10.38245 37082 ft 465 kts 133°
2026-05-08 15:00 46.57630 10.45478 37100 ft 464 kts 133°
2026-05-08 15:00 46.53174 10.52153 37098 ft 459 kts 140°
2026-05-08 15:01 46.48550 10.58525 37096 ft 458 kts 141°
2026-05-08 15:01 46.43935 10.64888 37105 ft 458 kts 141°
2026-05-08 15:02 46.39308 10.71245 37130 ft 458 kts 140°
2026-05-08 15:02 46.34687 10.77585 37143 ft 458 kts 140°
2026-05-08 15:03 46.30066 10.83913 37144 ft 457 kts 141°
2026-05-08 15:03 46.25445 10.90232 37157 ft 457 kts 141°
2026-05-08 15:04 46.20793 10.96577 37159 ft 457 kts 141°
2026-05-08 15:04 46.16169 11.02856 37160 ft 456 kts 141°
2026-05-08 15:05 46.11536 11.09124 37146 ft 457 kts 141°
2026-05-08 15:05 46.06906 11.15380 37140 ft 456 kts 141°
2026-05-08 15:06 46.02277 11.21626 37102 ft 456 kts 141°
2026-05-08 15:06 45.97644 11.27862 37081 ft 457 kts 141°
2026-05-08 15:07 45.92994 11.34104 37085 ft 457 kts 141°
2026-05-08 15:07 45.88335 11.40341 37081 ft 458 kts 141°
2026-05-08 15:08 45.84464 11.45515 37090 ft 458 kts 141°
2026-05-08 15:08 45.79006 11.52789 37072 ft 458 kts 141°
2026-05-08 15:09 45.74341 11.59003 37066 ft 458 kts 141°
2026-05-08 15:09 45.69667 11.65203 37048 ft 458 kts 141°
2026-05-08 15:10 45.64981 11.71390 37063 ft 459 kts 141°
2026-05-08 15:10 45.60289 11.77573 37037 ft 459 kts 141°
2026-05-08 15:11 45.55591 11.83759 37030 ft 459 kts 142°
2026-05-08 15:11 45.50863 11.89979 37024 ft 459 kts 141°
2026-05-08 15:12 45.46162 11.96150 37028 ft 459 kts 142°
2026-05-08 15:12 45.41455 12.02300 37033 ft 459 kts 142°
2026-05-08 15:13 45.36745 12.08432 37027 ft 459 kts 142°
2026-05-08 15:13 45.32032 12.14562 37016 ft 459 kts 142°
2026-05-08 15:14 45.27318 12.20688 37025 ft 460 kts 142°
2026-05-08 15:14 45.22596 12.26812 37027 ft 460 kts 142°
2026-05-08 15:15 45.17864 12.32928 37036 ft 460 kts 142°
2026-05-08 15:15 45.13126 12.39028 37022 ft 460 kts 142°
2026-05-08 15:16 45.08387 12.45125 37026 ft 460 kts 142°
2026-05-08 15:16 45.03642 12.51220 37031 ft 461 kts 142°
2026-05-08 15:17 44.98856 12.57348 37040 ft 461 kts 142°
2026-05-08 15:17 44.94092 12.63423 37042 ft 461 kts 142°
2026-05-08 15:18 44.89324 12.69487 37039 ft 461 kts 142°
2026-05-08 15:18 44.84561 12.75538 37033 ft 461 kts 142°
2026-05-08 15:19 44.79792 12.81597 37034 ft 462 kts 142°
2026-05-08 15:19 44.75017 12.87643 37031 ft 462 kts 142°
2026-05-08 15:20 44.70232 12.93673 37038 ft 462 kts 142°
2026-05-08 15:20 44.65443 12.99698 37024 ft 462 kts 142°
2026-05-08 15:21 44.60650 13.05723 37016 ft 463 kts 142°
2026-05-08 15:21 44.55849 13.11748 37024 ft 463 kts 142°
2026-05-08 15:22 44.51037 13.17768 37030 ft 464 kts 142°
2026-05-08 15:22 44.46214 13.23781 37028 ft 464 kts 142°
2026-05-08 15:23 44.41393 13.29794 37026 ft 464 kts 142°
2026-05-08 15:23 44.36561 13.35795 37028 ft 465 kts 142°
2026-05-08 15:24 44.31719 13.41783 37032 ft 465 kts 142°
2026-05-08 15:24 44.27657 13.46802 37035 ft 466 kts 142°
2026-05-08 15:25 44.22807 13.52790 37023 ft 466 kts 142°
2026-05-08 15:25 44.17950 13.58773 37018 ft 466 kts 142°
2026-05-08 15:26 44.13089 13.64746 37022 ft 466 kts 142°
2026-05-08 15:26 44.08221 13.70716 37027 ft 467 kts 142°
2026-05-08 15:27 44.03341 13.76676 37031 ft 467 kts 142°
2026-05-08 15:27 43.98418 13.82678 37033 ft 468 kts 142°
2026-05-08 15:28 43.93528 13.88635 37041 ft 467 kts 142°
2026-05-08 15:28 43.88642 13.94578 37046 ft 467 kts 142°
2026-05-08 15:29 43.83756 14.00497 37046 ft 466 kts 142°
2026-05-08 15:29 43.78867 14.06405 37050 ft 466 kts 142°
2026-05-08 15:30 43.73979 14.12300 37049 ft 466 kts 143°
2026-05-08 15:30 43.69088 14.18186 37024 ft 467 kts 143°
2026-05-08 15:31 43.64183 14.24081 37024 ft 467 kts 143°
2026-05-08 15:31 43.59268 14.29963 37033 ft 467 kts 143°
2026-05-08 15:32 43.54353 14.35834 37036 ft 468 kts 143°
2026-05-08 15:32 43.49435 14.41699 37020 ft 468 kts 143°
2026-05-08 15:33 43.44512 14.47563 37020 ft 468 kts 143°
2026-05-08 15:33 43.39572 14.53421 37024 ft 469 kts 143°
2026-05-08 15:34 43.34629 14.59283 37028 ft 469 kts 143°
2026-05-08 15:34 43.29678 14.65143 37033 ft 470 kts 143°
2026-05-08 15:35 43.24692 14.71025 37015 ft 470 kts 143°
2026-05-08 15:35 43.19719 14.76864 37018 ft 471 kts 143°
2026-05-08 15:36 43.14741 14.82706 37025 ft 472 kts 143°
2026-05-08 15:36 43.09755 14.88552 37030 ft 472 kts 143°
2026-05-08 15:37 43.04759 14.94389 37031 ft 472 kts 143°
2026-05-08 15:37 42.99755 15.00225 37015 ft 473 kts 143°
2026-05-08 15:38 42.94746 15.06064 37020 ft 474 kts 143°
2026-05-08 15:38 42.89727 15.11895 37026 ft 474 kts 143°
2026-05-08 15:39 42.84699 15.17722 37031 ft 474 kts 143°
2026-05-08 15:39 42.79667 15.23542 37008 ft 475 kts 144°
2026-05-08 15:40 42.74614 15.29356 37006 ft 476 kts 144°
2026-05-08 15:40 42.69549 15.35172 37017 ft 477 kts 144°
2026-05-08 15:41 42.64459 15.41030 37026 ft 477 kts 144°
2026-05-08 15:41 42.59389 15.46839 37033 ft 477 kts 144°
2026-05-08 15:42 42.54314 15.52640 37010 ft 478 kts 144°
2026-05-08 15:42 42.49216 15.58447 37010 ft 480 kts 144°
2026-05-08 15:43 42.44101 15.64264 37003 ft 481 kts 144°
2026-05-08 15:43 42.38982 15.70086 37020 ft 480 kts 144°
2026-05-08 15:44 42.33866 15.75893 37027 ft 480 kts 144°
2026-05-08 15:44 42.28742 15.81688 37000 ft 481 kts 144°
2026-05-08 15:45 42.23591 15.87490 37001 ft 483 kts 144°
2026-05-08 15:45 42.18435 15.93297 37005 ft 484 kts 144°
2026-05-08 15:46 42.13259 15.99109 37003 ft 484 kts 144°
2026-05-08 15:46 42.08080 16.04920 36996 ft 485 kts 144°
2026-05-08 15:47 42.02892 16.10725 36994 ft 486 kts 144°
2026-05-08 15:47 41.97685 16.16537 37000 ft 487 kts 144°
2026-05-08 15:48 41.89816 16.25298 37003 ft 488 kts 144°
2026-05-08 15:49 41.84582 16.31104 36985 ft 489 kts 145°
2026-05-08 15:49 41.79330 16.36911 36974 ft 490 kts 145°
2026-05-08 15:50 41.74054 16.42735 36984 ft 491 kts 145°
2026-05-08 15:50 41.68772 16.48557 36995 ft 492 kts 145°
2026-05-08 15:51 41.63485 16.54380 36998 ft 492 kts 145°
2026-05-08 15:51 41.58192 16.60197 37003 ft 493 kts 145°
2026-05-08 15:52 41.52898 16.65996 37013 ft 493 kts 145°
2026-05-08 15:52 41.47593 16.71786 37013 ft 492 kts 145°
2026-05-08 15:53 41.42268 16.77608 37016 ft 492 kts 145°
2026-05-08 15:53 41.37006 16.83340 37018 ft 491 kts 145°
2026-05-08 15:54 41.31663 16.89122 36983 ft 492 kts 146°
2026-05-08 15:54 41.26349 16.94873 36974 ft 493 kts 146°
2026-05-08 15:55 41.21023 17.00635 36977 ft 494 kts 146°
2026-05-08 15:55 41.13012 17.09265 36988 ft 494 kts 145°
2026-05-08 15:56 41.07676 17.15017 36967 ft 495 kts 146°
2026-05-08 15:56 41.02323 17.20764 36966 ft 496 kts 146°
2026-05-08 15:57 40.97858 17.25533 36966 ft 496 kts 146°
2026-05-08 15:57 40.92442 17.31316 36964 ft 497 kts 146°
2026-05-08 15:58 40.87065 17.37058 36969 ft 497 kts 146°
2026-05-08 15:58 40.81677 17.42796 36940 ft 498 kts 146°
2026-05-08 15:59 40.76262 17.48537 36927 ft 500 kts 146°
2026-05-08 15:59 40.70836 17.54283 36919 ft 500 kts 146°
2026-05-08 16:00 40.65408 17.60033 36917 ft 501 kts 146°
2026-05-08 16:00 40.59959 17.65768 36902 ft 502 kts 147°
2026-05-08 16:01 40.54498 17.71509 36915 ft 503 kts 146°
2026-05-08 16:01 40.49029 17.77266 36916 ft 504 kts 146°
2026-05-08 16:02 40.43550 17.83023 36932 ft 504 kts 146°
2026-05-08 16:02 40.38063 17.88762 36940 ft 504 kts 146°
2026-05-08 16:03 40.32568 17.94487 36924 ft 505 kts 147°
2026-05-08 16:03 40.27063 18.00213 36933 ft 506 kts 147°
2026-05-08 16:04 40.21547 18.05939 36941 ft 506 kts 147°
2026-05-08 16:04 40.16026 18.11664 36945 ft 507 kts 147°
2026-05-08 16:05 40.10501 18.17388 36920 ft 507 kts 147°
2026-05-08 16:05 40.04936 18.23128 36962 ft 506 kts 147°
2026-05-08 16:06 39.99409 18.28822 36979 ft 506 kts 147°
2026-05-08 16:06 39.93884 18.34508 36990 ft 506 kts 147°
2026-05-08 16:07 39.88358 18.40175 36982 ft 505 kts 147°
2026-05-08 16:07 39.82830 18.45835 36963 ft 505 kts 147°
2026-05-08 16:08 39.77307 18.51481 36973 ft 505 kts 147°
2026-05-08 16:08 39.71769 18.57116 36969 ft 505 kts 147°
2026-05-08 16:09 39.66232 18.62745 36985 ft 505 kts 147°
2026-05-08 16:09 39.60694 18.68368 36982 ft 505 kts 147°
2026-05-08 16:10 39.55161 18.73983 36969 ft 505 kts 147°
2026-05-08 16:10 39.49628 18.79578 36974 ft 505 kts 148°
2026-05-08 16:11 39.44090 18.85165 36913 ft 506 kts 148°
2026-05-08 16:11 39.41312 18.87959 36648 ft 505 kts 148°
2026-05-08 16:11 39.38499 18.90788 36390 ft 506 kts 148°
2026-05-08 16:12 39.35760 18.93544 36113 ft 506 kts 148°
2026-05-08 16:12 39.32921 18.96392 35094 ft 514 kts 147°
2026-05-08 16:12 39.30136 18.99195 34174 ft 519 kts 145°
2026-05-08 16:12 39.27417 19.02455 33052 ft 530 kts 139°
2026-05-08 16:13 39.24823 19.05847 32014 ft 533 kts 139°
2026-05-08 16:13 39.22211 19.09266 30995 ft 536 kts 139°
2026-05-08 16:13 39.19584 19.12700 29838 ft 541 kts 139°
2026-05-08 16:13 39.16935 19.16157 28705 ft 542 kts 139°
2026-05-08 16:14 39.14278 19.19616 27555 ft 543 kts 139°
2026-05-08 16:14 39.11657 19.23023 26184 ft 532 kts 140°
2026-05-08 16:14 39.09060 19.26398 25152 ft 525 kts 140°
2026-05-08 16:14 39.06515 19.29706 24472 ft 517 kts 140°
2026-05-08 16:15 39.03983 19.32986 23634 ft 515 kts 140°
2026-05-08 16:15 39.01462 19.36243 22762 ft 512 kts 140°
2026-05-08 16:15 38.98963 19.39460 22018 ft 505 kts 140°
2026-05-08 16:15 38.96491 19.42635 21280 ft 500 kts 140°
2026-05-08 16:16 38.94048 19.45774 20563 ft 494 kts 140°
2026-05-08 16:16 38.91635 19.48882 19879 ft 488 kts 140°
2026-05-08 16:16 38.89256 19.51945 19229 ft 482 kts 140°
2026-05-08 16:16 38.86906 19.54964 18663 ft 474 kts 140°
2026-05-08 16:17 38.84585 19.57942 18021 ft 468 kts 140°
2026-05-08 16:17 38.83038 19.59928 17590 ft 463 kts 140°
2026-05-08 16:17 38.80054 19.63751 16799 ft 453 kts 140°
2026-05-08 16:17 38.77841 19.66574 16215 ft 445 kts 141°
2026-05-08 16:18 38.75661 19.69352 15652 ft 439 kts 141°
2026-05-08 16:18 38.73478 19.72136 15054 ft 434 kts 141°
2026-05-08 16:18 38.71354 19.74846 14449 ft 429 kts 141°
2026-05-08 16:18 38.69249 19.77528 13838 ft 425 kts 141°
2026-05-08 16:19 38.67160 19.80182 13142 ft 421 kts 141°
2026-05-08 16:19 38.65092 19.82807 12507 ft 416 kts 141°
2026-05-08 16:19 38.63049 19.85405 11847 ft 412 kts 141°
2026-05-08 16:19 38.61030 19.87971 11182 ft 408 kts 140°
2026-05-08 16:20 38.59038 19.90502 10801 ft 396 kts 140°
2026-05-08 16:20 38.57132 19.92930 10680 ft 378 kts 140°
2026-05-08 16:20 38.55310 19.95256 10556 ft 362 kts 141°
2026-05-08 16:20 38.53568 19.97472 10441 ft 347 kts 141°
2026-05-08 16:21 38.51885 19.99603 10324 ft 334 kts 141°
2026-05-08 16:21 38.50239 20.01683 10190 ft 322 kts 142°
2026-05-08 16:21 38.48686 20.03642 10023 ft 315 kts 143°
2026-05-08 16:21 38.47111 20.05614 9542 ft 320 kts 142°
2026-05-08 16:22 38.45512 20.07616 9262 ft 314 kts 142°
2026-05-08 16:22 38.43972 20.09555 8641 ft 309 kts 142°
2026-05-08 16:22 38.42448 20.11474 7969 ft 306 kts 142°
2026-05-08 16:22 38.40951 20.13359 7375 ft 300 kts 141°
2026-05-08 16:23 38.39481 20.15212 6802 ft 294 kts 141°
2026-05-08 16:23 38.38042 20.17024 6280 ft 288 kts 141°
2026-05-08 16:23 38.36624 20.18807 5769 ft 284 kts 141°
2026-05-08 16:23 38.35226 20.20563 5266 ft 280 kts 141°
2026-05-08 16:24 38.33845 20.22296 4883 ft 276 kts 141°
2026-05-08 16:24 38.32495 20.23998 4427 ft 270 kts 139°
2026-05-08 16:24 38.31414 20.25948 3821 ft 271 kts 120°
2026-05-08 16:24 38.30857 20.28146 3686 ft 251 kts 109°
2026-05-08 16:25 38.30458 20.30217 3539 ft 232 kts 110°
2026-05-08 16:25 38.30072 20.32176 3201 ft 226 kts 111°
2026-05-08 16:25 38.29623 20.34063 2978 ft 218 kts 122°
2026-05-08 16:25 38.28806 20.35613 2830 ft 204 kts 140°
2026-05-08 16:26 38.27726 20.36701 2719 ft 194 kts 153°
2026-05-08 16:26 38.26594 20.37636 2581 ft 191 kts 153°
2026-05-08 16:26 38.25498 20.38557 2466 ft 185 kts 153°
2026-05-08 16:26 38.24467 20.39428 2388 ft 171 kts 153°
2026-05-08 16:27 38.23519 20.40231 2382 ft 153 kts 154°
2026-05-08 16:27 38.22658 20.40956 2319 ft 150 kts 154°
2026-05-08 16:27 38.21744 20.41712 2250 ft 159 kts 154°
2026-05-08 16:27 38.20828 20.42475 2198 ft 159 kts 154°
2026-05-08 16:28 38.19920 20.43238 1956 ft 145 kts 153°
2026-05-08 16:28 38.19135 20.43901 1726 ft 131 kts 154°
2026-05-08 16:28 38.18614 20.44335 1580 ft 132 kts 153°
2026-05-08 16:28 38.17866 20.44961 1357 ft 127 kts 152°
2026-05-08 16:29 38.17136 20.45572 1187 ft 123 kts 151°
2026-05-08 16:29 38.16407 20.46178 1006 ft 128 kts 151°
2026-05-08 16:29 38.15693 20.46827 870 ft 125 kts 144°
2026-05-08 16:29 38.14976 20.47543 634 ft 134 kts 146°
2026-05-08 16:30 38.14195 20.48182 419 ft 130 kts 146°
2026-05-08 16:30 38.13475 20.48803 222 ft 122 kts 146°
2026-05-08 16:30 38.12754 20.49410 55 ft 121 kts 146°
2026-05-08 16:30 38.12166 20.49909 63 ft 78 kts 146°
2026-05-08 16:31 38.11869 20.50161 61 ft 28 kts 146°
2026-05-08 16:31 38.11746 20.50265 63 ft 10 kts 145°
2026-05-08 16:31 38.11747 20.50318 58 ft 5 kts 30°
2026-05-08 16:31 38.11770 20.50336 57 ft 2 kts 31°
2026-05-08 16:32 38.11784 20.50347 40 ft 4 kts 32°
2026-05-08 16:32 38.11786 20.50348 39 ft 0 kts 32°
2026-05-08 16:32 38.11797 20.50357 64 ft 5 kts 32°
2026-05-08 16:32 38.11825 20.50387 64 ft 4 kts 52°
2026-05-08 16:33 38.11835 20.50405 63 ft 1 kts 57°
2026-05-08 16:33 38.11840 20.50416 64 ft 2 kts 57°
2026-05-08 16:33 38.11847 20.50428 66 ft 3 kts 56°
2026-05-08 16:33 38.11855 20.50443 62 ft 2 kts 57°
2026-05-08 16:34 38.11855 20.50445 62 ft 0 kts 57°